NOAA 1 1 04793U 70106A 25137.61805978 -.00000037 00000-0 38071-4 0 9993 2 04793 101.3911 183.5908 0031780 43.3818 111.3985 12.54042932491106 NOAA 2 (ITOS-D) 1 06235U 72082A 25137.50426603 -.00000028 00000-0 11904-3 0 9998 2 06235 102.0216 146.4540 0003924 198.4353 283.8420 12.53200252405384 NOAA 3 1 06920U 73086A 25137.52496284 -.00000042 00000-0 31091-4 0 9994 2 06920 102.2890 142.6171 0006800 129.3345 345.0221 12.40382091332841 NOAA 4 1 07529U 74089A 25137.48918770 -.00000046 00000-0 55849-5 0 9990 2 07529 102.0034 141.0729 0008649 229.4789 285.7442 12.53194564309955 NOAA 5 1 09057U 76077A 25137.48533796 -.00000022 00000-0 18468-3 0 9996 2 09057 102.2569 116.9508 0009749 346.5594 130.8273 12.37817753205514 TIROS N 1 11060U 78096A 25137.50240564 .00000207 00000-0 11898-3 0 9991 2 11060 98.4888 170.7467 0009430 313.6756 46.3639 14.19183632622621 NOAA 6 1 11416U 79057A 25137.48321496 .00000440 00000-0 16932-3 0 9998 2 11416 98.6005 164.0034 0009768 358.6083 1.5073 14.35161147394199 NOAA 7 1 12553U 81059A 25137.45970063 .00000074 00000-0 58328-4 0 9992 2 12553 98.8445 202.2883 0010713 324.5578 35.4884 14.17702216268679 NOAA 8 1 13923U 83022A 25137.51787170 .00000192 00000-0 92321-4 0 9990 2 13923 98.7372 144.3560 0014383 340.3990 19.6637 14.29624385194534 NOAA 9 1 15427U 84123A 25137.51864005 .00000172 00000-0 10890-3 0 9995 2 15427 99.1224 149.4000 0015237 34.0528 128.5057 14.16917533 87380 NOAA 10 1 16969U 86073A 25137.52759795 .00000199 00000-0 96124-4 0 9997 2 16969 98.6739 127.0271 0013257 75.0476 37.3359 14.28998642 12907 NOAA 11 1 19531U 88089A 25137.59876810 .00000098 00000-0 71061-4 0 9990 2 19531 98.5696 92.3535 0011075 359.9930 0.1243 14.15741926891506 NOAA 12 1 21263U 91032A 25137.57808006 .00000106 00000-0 61521-4 0 9997 2 21263 98.5869 127.7466 0014822 103.1706 257.1130 14.26603651768553 NOAA 13 1 22739U 93050A 25137.49629880 .00000151 00000-0 10280-3 0 9995 2 22739 98.6552 89.2154 0009465 171.8451 188.2877 14.13521224637473 NOAA 14 1 23455U 94089A 25137.53329631 .00000069 00000-0 57276-4 0 9995 2 23455 98.4631 121.5434 0010265 135.5138 224.6862 14.14581132567268 NOAA 15 1 25338U 98030A 25137.53219159 .00000283 00000-0 13384-3 0 9999 2 25338 98.5365 163.2166 0011402 70.0869 290.1539 14.26966569404867 NOAA 16 1 26536U 00055A 25137.50075438 .00000093 00000-0 70749-4 0 9995 2 26536 98.4899 167.1384 0010399 4.3929 355.7334 14.13802091567816 NOAA 17 1 27453U 02032A 25137.59403959 .00000239 00000-0 11895-3 0 9991 2 27453 98.8113 94.9409 0012689 60.9190 299.3258 14.26006061190609 NOAA 18 1 28654U 05018A 25137.54758491 .00000283 00000-0 17342-3 0 9993 2 28654 98.8420 217.2824 0014124 190.3268 169.7617 14.13599042 30418 NOAA 19 1 33591U 09005A 25137.55031369 .00000253 00000-0 15878-3 0 9997 2 33591 98.9981 202.1242 0014743 71.2594 289.0176 14.13362959838596 NPP 1 37849U 11061A 25137.56350744 .00000139 00000-0 86832-4 0 9996 2 37849 98.7569 77.0862 0002168 49.2134 310.9230 14.19532435702315